Regional Weather Roundup
Issued by NWS Kansas City/Pleasant Hill, MO

Home | Current Version | Previous Version | Graphics & Text | Print | Product List | Glossary Off
Versions: 1 2 3 4 5 6 7 8 9 10 11 12 13 14 15 16 17 18 19 20 21 22 23 24 25 26 27 28

000
ASUS43 KEAX 270210
RWREAX

WEATHER ROUNDUP FOR EASTERN KANSAS AND NORTHWEST MISSOURI
NATIONAL WEATHER SERVICE KANSAS CITY/PLEASANT HILL MO
900 PM CDT TUE JUL 26 2016

KSZ040-057-103>105-MOZ028-029-037-043-270300-
...KANSAS CITY METROPOLITAN AREA...

CITY           SKY/WX    TMP DP  RH WIND       PRES   REMARKS
K.C. INTL      PTCLDY    81  66  60 E8        30.00F
K.C. DOWNTOWN  CLEAR     81  67  62 E6        29.98F
LEES SUMMIT    CLOUDY    80  68  66 E5        30.01S
OLATHE - IXD   CLEAR     79  70  74 SE6       30.01S
OLATHE - OJC   CLEAR     78  68  71 E6        30.01S
LAWRENCE       CLEAR     77  67  71 E6        29.98F

$$

MOZ001>008-011>017-020>025-030>033-038>040-044>046-053-054-270300-
...NORTHERN AND CENTRAL MISSOURI...

CITY           SKY/WX    TMP DP  RH WIND       PRES   REMARKS
ST. JOSEPH     CLEAR     80  66  62 SE7       30.00S
MOSBY          CLEAR     77  68  73 CALM      29.99F
WHITEMAN AFB   PTCLDY    76  75  95 NE3       29.98S
CLINTON        CLOUDY    77  73  88 CALM      29.99S
SEDALIA        CLOUDY    79  71  76 NE3       30.00S
WARSAW         NOT AVBL
CHILLICOTHE      N/A     76  70  82 CALM      30.01S
KIRKSVILLE     CLEAR     76  66  71 CALM      30.02F

$$

MOZ041-047>049-056>058-063>065-088>090-097-270300-
...EASTERN AND SOUTHERN MISSOURI...

CITY           SKY/WX    TMP DP  RH WIND       PRES   REMARKS
ST. LOUIS INTL MOCLDY    81  76  84 N3        29.99R
SPIRIT OF STL  CLOUDY    78  75  90 CALM      29.97R
COLUMBIA       CLOUDY    78  73  84 NE5       30.00R
JEFFERSON CITY CLOUDY    77  73  87 CALM      29.98R
ROLLA          CLOUDY    75  72  90 CALM      29.99R
OSAGE BEACH    MOCLDY    76  73  91 CALM      30.00R
SPRINGFIELD    CLOUDY    75  72  90 S3        29.99S
BRANSON        MOCLDY    73  73 100 CALM      30.01F FOG
JOPLIN         PTCLDY    74  73  97 NE3       29.98F
WEST PLAINS    CLOUDY    75  71  87 CALM      30.05R

$$

IAZ060-094-KSZ022-034>040-054-083-096-NEZ052-066-093-270300-
...KANSAS...SOUTHEAST NEBRASKA AND IOWA...

CITY           SKY/WX    TMP DP  RH WIND       PRES   REMARKS
TOPEKA         CLEAR     79  68  69 NE5       29.98S
MANHATTAN      PTCLDY    80  69  69 E3        29.98R
EMPORIA        CLEAR     78  70  76 E3        29.99S
CHANUTE        LGT RAIN  78  74  87 SW8       29.99R
WICHITA        PTCLDY    84  71  65 E12       29.98R
OMAHA          PTCLDY    81  68  64 E6        29.99S
LINCOLN        PTCLDY    80  64  58 SE10      30.01R
FALLS CITY     CLEAR     77  69  76 E3        29.99S
LAMONI         CLEAR     76  66  71 E3        30.02F
DES MOINES     PTCLDY    80  66  62 SE8       29.99F

$$





USA.gov is the U.S. government's official web portal to all federal, state and local government web resources and services.